Pine Ridge, SD

1:40 AM MDT on June 24, 2017 (GMT -0600)
Pine Ridge

Weather History for KIEN - May, 2013

Change the Weather History Date:

Friday, May 3, 2013

  Actual Average Record
Temperature  
Mean Temperature 41 °F 51 °F  
Max Temperature 62 °F 66 °F 82 °F (2004)
Min Temperature 20 °F 37 °F 16 °F (2005)
Degree Days  
Heating Degree Days 24 14  
Month to date heating degree days 84 43  
Since 1 July heating degree days 6863 6863  
Cooling Degree Days 0 0  
Month to date cooling degree days 0 0  
Year to date cooling degree days 0 0  
Moisture  
Dew Point 21 °F    
Average Humidity 54    
Maximum Humidity 88    
Minimum Humidity 19    
Precipitation  
Precipitation 0.00 in 0.10 in 0.21 in (2001)
Month to date precipitation T 0.31  
Year to date precipitation 2.47 3.88  
Sea Level Pressure  
Sea Level Pressure 30.26 in    
Wind  
Wind Speed 4 mph (ENE)    
Max Wind Speed 16 mph    
Max Gust Speed 22 mph    
Visibility 10 miles    
Events      
T = Trace of Precipitation, MM = Missing Value Source: NWS Daily Summary

Daily Weather History Graph

Daily Weather History Graph

Search for Another Location

Airport or City:

Trip Planner

Search our weather history database for the weather conditions in past years. The results will help you decide how hot, cold, wet, or windy it might be!

Date:

Astronomy

May. 03, 2013 Rise Set
Actual Time 5:40 AM MDT 7:53 PM MDT
Civil Twilight 5:09 AM MDT 8:25 PM MDT
Nautical Twilight 4:30 AM MDT 9:03 PM MDT
Astronomical Twilight 3:48 AM MDT 9:46 PM MDT
Moon 2:16 AM MDT (5/3) 1:41 PM MDT (5/3)
Length of Visible Light 15h 15m
Length of Day
14h 13m
Last Quarter, 36% of the Moon is Illuminated
May 3
Last Quarter
May 9
New
May 17
First Quarter
May 24
Full
May 31
Last Quarter

Hourly Weather History & Observations

Time (MDT) Temp. Windchill Dew Point Humidity Pressure Visibility Wind Dir Wind Speed Gust Speed Precip Events Conditions
12:52 AM 26.1 °F - 23.0 °F 88% 30.42 in 10.0 mi Calm Calm - N/A   Clear
1:52 AM 25.0 °F - 21.0 °F 85% 30.41 in 10.0 mi Calm Calm - N/A   Clear
2:52 AM 23.0 °F - 19.9 °F 88% 30.39 in 10.0 mi Calm Calm - N/A   Clear
3:52 AM 23.0 °F - 19.9 °F 88% 30.38 in 10.0 mi Calm Calm - N/A   Clear
4:52 AM 21.0 °F - 18.0 °F 88% 30.38 in 10.0 mi Calm Calm - N/A   Clear
5:52 AM 21.0 °F - 17.1 °F 85% 30.37 in 10.0 mi Calm Calm - N/A   Clear
6:52 AM 27.0 °F - 23.0 °F 85% 30.35 in 10.0 mi Calm Calm - N/A   Clear
7:52 AM 34.0 °F - 27.0 °F 75% 30.33 in 10.0 mi Calm Calm - N/A   Clear
8:52 AM 46.0 °F - 25.0 °F 44% 30.29 in 10.0 mi Calm Calm - N/A   Clear
9:52 AM 52.0 °F - 21.0 °F 30% 30.26 in 10.0 mi Calm Calm - N/A   Clear
10:52 AM 54.0 °F - 19.0 °F 25% 30.25 in 10.0 mi Calm Calm - N/A   Clear
11:52 AM 57.9 °F - 19.9 °F 23% 30.22 in 10.0 mi East 8.1 mph - N/A   Clear
12:52 PM 57.9 °F - 17.1 °F 20% 30.21 in 10.0 mi Variable 4.6 mph - N/A   Clear
1:52 PM 60.1 °F - 18.0 °F 20% 30.19 in 10.0 mi NNE 9.2 mph - N/A   Clear
2:52 PM 61.0 °F - 19.9 °F 21% 30.18 in 10.0 mi Variable 3.5 mph - N/A   Clear
3:52 PM 61.0 °F - 21.0 °F 21% 30.16 in 10.0 mi ENE 5.8 mph - N/A   Clear
4:52 PM 60.1 °F - 19.9 °F 21% 30.15 in 10.0 mi ENE 10.4 mph 16.1 mph N/A   Clear
5:52 PM 57.9 °F - 19.9 °F 23% 30.16 in 10.0 mi East 9.2 mph - N/A   Clear
6:52 PM 54.0 °F - 19.0 °F 25% 30.16 in 10.0 mi ENE 13.8 mph - N/A   Clear
7:52 PM 48.0 °F - 19.9 °F 33% 30.18 in 10.0 mi East 10.4 mph - N/A   Clear
8:52 PM 39.9 °F 35.8 °F 21.9 °F 49% 30.19 in 10.0 mi ENE 5.8 mph - N/A   Clear
9:52 PM 37.9 °F 32.1 °F 21.0 °F 51% 30.20 in 10.0 mi ENE 8.1 mph - N/A   Clear
10:52 PM 35.1 °F 30.1 °F 21.0 °F 57% 30.20 in 10.0 mi ENE 5.8 mph - N/A   Clear
11:52 PM 28.9 °F 25.2 °F 19.9 °F 69% 30.21 in 10.0 mi East 3.5 mph - N/A   Clear